CAPE
46 22 16 0 0 0 0 0 0 0 0 0 0 0 0 0 0 130 541 51 10 0 0 6 9 58 3 5 0 0 704 1273 1176 981 827 462 283 1199 1344 1250 953 1004 1011 746
0 3 6 0 6 0 0 0 0 0 0 0 0 0 0 0 0 0 76 147 206 193 75 26 31 62 41 0 0 0 35 836 1194 879 633 560 1120 798 833 537 138 76 0 0
0 1 2 2 2 0 0 0 0 0 0 0 0 0 0 0 435 373 197 142 349 361 162 15 27 9 1 3 0 0 1 2 836 889 1031 1053 585 137 3 0 0 0 0 0
3 2 9 0 0 0 0 0 0 0 0 0 0 0 0 0 366 517 246 277 323 313 340 46 22 0 1 0 1 0 0 1 309 943 1205 1119 804 169 2 0 0 0 0 0
19 18 0 0 0 0 0 0 0 0 0 0 0 0 0 0 331 587 351 257 232 286 208 37 2 0 3 0 0 0 0 176 535 753 1273 956 533 20 0 0 0 0 0 0
2 2 0 0 0 0 0 0 0 0 0 0 0 0 0 0 0 395 442 294 136 74 61 39 8 0 0 0 0 0 0 0 6 903 401 360 6 0 0 0 0 0 0 0
0 0 0 0 0 0 0 0 0 0 0 0 0 0 0 0 0 128 235 257 60 42 26 2 0 22 1 0 0 1 0 0 39 129 73 6 0 0 0 0 0 0 0 0
0 0 0 0 0 0 0 0 0 0 0 0 0 0 0 0 0 85 146 105 3 47 9 18 49 98 218 20 1 0 0 121 357 267 0 0 0 0 0 0 0 0 0 0
0 0 0 0 0 0 0 0 0 0 0 0 0 0 0 0 0 188 133 13 2 11 6 93 184 337 305 471 576 36 0 11 83 0 1 0 0 0 0 0 0 0 0 0
0 11 0 0 0 0 0 0 0 0 1 0 0 0 0 0 0 0 180 55 0 34 93 188 50 333 708 910 853 670 163 0 0 0 0 0 0 0 0 0 0 0 0 0
0 3 0 0 0 0 0 0 0 0 0 0 0 0 0 0 0 0 273 162 22 58 145 122 64 412 992 971 406 157 7 0 0 0 0 0 0 0 0 0 0 0 0 0
0 2 0 0 0 0 0 0 0 0 0 0 3 0 2 0 0 20 172 205 123 63 6 0 181 644 643 333 103 3 0 0 0 0 0 0 0 0 0 0 0 0 0 0
10 14 0 0 0 0 0 0 0 0 0 0 6 17 25 204 58 104 252 237 179 50 10 24 374 729 173 2 0 0 0 0 0 0 0 0 0 0 0 0 0 0 0 0
86 0 0 0 0 0 0 0 1 0 0 0 0 7 30 625 469 333 231 200 105 46 60 387 331 20 0 0 0 0 0 0 0 0 0 0 0 0 0 0 0 0 0 0
1 109 195 127 0 0 0 0 1 4 1 0 0 0 371 421 241 190 113 142 56 3 0 2 0 0 0 0 0 0 0 0 0 0 0 0 0 0 0 0 0 0 0 0
46 63 82 25 29 0 0 0 0 7 0 0 86 258 370 275 174 172 80 52 2 2 1 1 0 0 0 0 0 0 0 0 0 0 0 0 0 0 0 0 0 0 0 0
36 62 35 32 66 36 0 0 0 38 4 7 5 78 103 7 3 1 2 0 2 0 0 0 0 0 0 0 0 0 0 0 0 0 0 0 0 0 0 0 0 0 0 0
54 12 10 30 28 26 0 96 0 46 152 5 202 122 2 5 4 1 0 0 0 0 0 0 0 0 0 0 0 0 0 0 0 0 0 0 0 0 0 0 0 0 0 0
110 0 0 8 26 6 216 155 244 60 332 93 165 7 3 0 0 1 0 0 0 0 0 0 0 0 0 0 0 0 0 0 0 0 0 0 0 0 0 0 0 0 0 0
21 0 0 0 5 32 48 64 146 137 276 377 95 1 0 0 0 2 0 0 0 0 0 0 0 0 0 0 0 0 0 0 0 0 0 0 0 0 0 0 0 0 0 0
0 0 1 0 0 0 0 23 82 63 7 100 49 0 0 0 0 0 0 0 0 0 0 0 0 0 0 0 0 0 0 0 0 0 0 0 0 0 0 0 0 0 0 0
1 0 0 0 0 14 5 46 83 38 73 35 5 0 0 0 0 0 1 2 0 0 0 0 0 2 2 0 0 0 0 0 0 0 0 0 0 0 0 0 0 0 0 0
57 62 12 0 0 0 0 99 101 20 72 37 0 0 0 0 0 0 1 0 0 0 0 0 0 0 0 0 0 0 0 0 0 0 0 0 0 0 0 0 0 0 0 0
1 6 2 0 1 0 4 27 12 32 0 0 0 0 0 0 0 0 0 0 0 0 0 0 0 0 0 0 0 0 0 0 0 0 0 0 0 0 0 0 0 0 0 0
0 42 19 0 2 1 5 0 31 0 0 0 0 0 0 0 0 0 0 0 0 0 0 0 0 0 0 0 0 0 0 0 0 0 0 0 0 0 0 0 0 0 0 0
17 18 26 49 9 0 0 0 112 0 0 0 0 0 0 0 0 0 0 0 0 0 0 0 0 0 0 0 0 0 0 0 0 0 0 0 0 0 0 0 0 0 0 0
CIN
-5 -8 -1 0 0 0 0 0 0 0 0 0 0 0 0 0 0 -361 -205 -397 -555 0 0 -250 -283 -145 -39 -260 -2 0 -17 -82 -66 -124 -196 -215 -231 -147 -178 -214 -209 -185 -170 -222
0 -1 -26 0 -9 0 0 0 0 0 0 0 0 0 0 0 0 0 -406 -407 -369 -391 -440 -410 -425 -277 -313 0 0 -1 -65 -109 -118 -167 -121 -123 -101 -236 -267 -303 -305 -503 0 0
-1 -4 -15 -9 -2 0 0 0 0 0 0 0 0 0 0 0 -286 -347 -402 -404 -315 -314 -329 -265 -369 -567 -237 -296 0 0 0 0 -37 -79 -137 -144 -159 -377 -433 0 0 0 0 0
-23 -15 -22 0 0 0 0 0 0 0 0 0 0 0 0 0 -302 -270 -384 -339 -334 -336 -304 -451 -548 -44 -119 0 0 0 0 -1 -7 -125 -122 -106 -74 -307 -349 0 0 0 0 0
-39 -23 0 0 0 0 0 0 0 0 0 0 0 0 0 0 -221 -222 -310 -379 -371 -437 -473 -565 -191 0 -594 0 0 0 0 -38 -6 -63 -66 -154 -176 -466 0 0 0 0 0 0
-51 -61 0 0 0 0 0 0 0 0 0 0 0 0 0 0 0 -277 -259 -333 -398 -477 -586 -547 -600 0 0 0 0 0 0 0 -31 -14 -149 -223 -51 0 0 0 0 0 0 0
0 0 0 0 0 0 0 0 0 0 0 0 0 0 0 0 0 -392 -357 -356 -478 -463 -514 -230 0 -492 0 0 0 -362 0 0 -80 -28 -174 -135 0 0 0 0 0 0 0 0
0 0 0 0 0 0 0 0 0 0 0 0 0 0 0 0 0 -271 -321 -406 -183 -498 -550 -567 -564 -481 -279 -405 -213 -1 0 -138 -2 -26 0 0 0 0 0 0 0 0 0 0
0 -1 0 0 0 0 0 0 0 0 0 0 0 0 0 0 0 -284 -353 -509 -324 -562 -632 -497 -390 -287 -220 -71 -13 -387 0 -256 -129 0 -207 0 0 0 0 0 0 0 0 0
0 -25 0 0 0 0 0 0 0 0 -12 0 0 0 0 0 0 0 -338 -417 0 -525 -525 -423 -482 -253 -126 -37 -26 -45 -105 0 0 0 0 0 0 0 0 0 0 0 0 0
0 -44 0 0 0 0 0 0 0 0 0 0 0 0 0 0 0 0 -300 -370 -496 -512 -452 -448 -463 -193 -72 -105 -168 -209 -254 0 0 0 0 0 0 0 0 0 0 0 0 0
0 -43 0 0 0 0 0 0 0 0 0 0 -34 0 -8 0 0 -226 -306 -368 -415 -432 -445 0 -360 -182 -134 -213 -307 -358 0 0 0 0 0 0 0 0 0 0 0 0 0 0
-71 -28 0 0 0 0 0 0 0 0 0 0 -40 -51 -214 -311 -94 -286 -246 -267 -298 -427 -436 -421 -340 -224 -247 -172 0 0 0 0 0 0 0 0 0 0 0 0 0 0 0 0
-67 0 0 0 0 0 0 0 -56 0 0 0 0 -229 -267 -176 -375 -488 -511 -477 -574 -510 -179 -290 -228 -421 0 0 0 0 0 0 0 0 0 0 0 0 0 0 0 0 0 0
-21 -32 -47 -48 0 0 0 0 -49 -90 -119 0 0 0 -87 -131 -270 -385 -479 -482 -519 -408 -127 -142 0 0 0 0 0 0 0 0 0 0 0 0 0 0 0 0 0 0 0 0
-185 -30 -77 -37 -30 0 0 0 0 -189 0 0 -219 -86 -47 -43 -217 -305 -410 -494 0 0 0 0 0 0 0 0 0 0 0 0 0 0 0 0 0 0 0 0 0 0 0 0
-151 -106 -94 -51 -94 -32 0 0 0 -123 -175 -237 -169 -172 -119 0 0 0 0 0 0 0 0 0 0 0 0 0 0 0 0 0 0 0 0 0 0 0 0 0 0 0 0 0
-99 -136 -179 -78 -97 -12 0 -71 0 -103 -185 -151 -206 -122 -271 0 0 0 0 0 0 0 0 0 0 0 0 0 0 0 0 0 0 0 0 0 0 0 0 0 0 0 0 0
-130 -24 0 -118 -130 -104 -70 -162 -153 -119 -175 -332 -203 -75 0 0 0 0 0 0 0 0 0 0 0 0 0 0 0 0 0 0 0 0 0 0 0 0 0 0 0 0 0 0
-238 0 0 0 -83 -47 -167 -201 -239 -210 -130 -126 -198 -94 0 0 0 0 0 0 0 0 0 0 0 0 0 0 0 0 0 0 0 0 0 0 0 0 0 0 0 0 0 0
0 0 -50 0 0 0 0 -283 -187 -65 -49 -252 -264 0 0 -106 0 0 0 0 0 0 0 0 0 0 0 0 0 0 0 0 0 0 0 0 0 0 0 0 0 0 0 0
-22 0 0 0 0 -48 -133 -160 -68 -190 -351 -371 -132 0 0 0 0 0 0 0 0 0 0 0 0 0 0 0 0 0 0 0 0 0 0 0 0 0 0 0 0 0 0 0
-28 -12 -63 0 0 0 0 -175 -303 -408 -349 -416 0 0 0 0 0 0 0 0 0 0 0 0 0 0 0 0 0 0 0 0 0 0 0 0 0 0 0 0 0 0 0 0
-4 -26 -39 -6 -15 0 -194 -197 -400 -415 -28 0 0 0 0 0 0 0 0 0 0 0 0 0 0 0 0 0 0 0 0 0 0 0 0 0 0 0 0 0 0 0 0 0
0 -17 -3 0 -41 -73 -190 0 -98 0 0 0 0 0 0 0 0 0 0 0 0 0 0 0 0 0 0 0 0 0 0 0 0 0 0 0 0 0 0 0 0 0 0 0
-12 -5 -1 -1 -11 0 0 0 -168 0 0 0 0 0 0 0 0 0 0 0 0 0 0 0 0 0 0 0 0 0 -5 0 0 0 0 0 0 0 0 0 0 0 0 0
Wind_Speed
2 8 14 14 7 10 6 2 2 3 6 4 9 12 8 7 6 10 9 9 5 5 5 17 14 7 8 9 6 20 19 10 8 4 4 3 4 4 6 7 7 7 6 6
3 7 6 8 7 11 10 6 4 4 9 5 11 14 3 5 6 8 15 12 14 8 6 6 18 13 9 9 3 3 14 4 6 5 3 2 4 5 7 6 6 7 8 7
3 5 6 8 8 12 11 7 3 5 7 3 5 7 5 1 5 6 9 12 13 17 13 9 13 14 11 12 8 6 15 16 14 10 7 6 6 5 5 5 5 4 8 7
5 6 7 9 10 9 12 6 6 5 4 4 7 5 4 4 4 4 8 14 12 13 11 7 6 7 9 10 12 6 7 4 20 9 9 14 6 5 3 3 4 4 6 8
5 3 4 8 13 12 3 5 4 4 4 3 4 3 9 9 3 9 8 10 15 15 13 11 9 10 10 6 11 3 7 4 20 8 10 10 8 6 5 5 8 4 4 6
9 9 5 6 7 8 1 2 1 1 4 2 7 5 6 7 10 5 9 11 13 11 10 12 10 4 4 7 9 6 4 10 5 9 6 14 16 11 9 7 4 4 3 4
4 9 5 4 1 3 4 5 1 1 1 7 6 2 9 5 10 16 20 17 15 14 14 16 15 13 11 13 10 2 7 16 16 7 7 12 14 14 11 9 7 7 3 2
4 4 7 5 4 4 5 7 6 6 5 5 5 6 11 6 4 10 16 20 17 19 17 18 19 17 17 15 14 17 23 17 20 10 11 11 9 7 7 5 6 5 4 4
3 5 4 7 8 7 5 5 5 6 2 3 4 7 8 7 3 7 9 10 18 21 19 19 17 13 13 19 18 19 16 18 13 15 10 9 6 8 7 8 7 5 6 4
4 5 6 8 4 10 3 7 6 5 2 3 5 4 9 6 12 8 10 14 10 8 13 13 8 11 13 11 10 10 11 15 15 14 11 10 11 10 10 11 10 7 5 6
4 2 4 5 6 6 3 5 5 5 4 1 3 8 7 11 10 13 18 19 13 14 16 12 8 6 9 10 14 12 11 16 14 12 12 12 11 11 11 10 8 7 7 7
9 5 3 7 5 7 5 9 8 5 4 5 2 9 4 8 15 10 20 20 20 15 7 7 7 9 9 14 14 15 14 14 14 14 13 11 12 12 12 10 9 8 7 7
5 1 3 3 3 4 5 5 5 4 5 3 3 7 11 17 11 6 16 13 10 15 13 7 9 9 15 14 15 14 15 14 15 14 14 12 10 11 10 9 8 8 7 7
6 3 6 6 5 5 3 4 6 4 5 5 4 7 14 11 13 16 14 14 12 11 11 11 14 14 16 14 15 14 14 14 15 14 13 11 10 10 9 9 8 8 6 6
3 1 3 4 8 6 8 7 11 5 7 5 2 4 10 12 12 14 16 18 19 16 19 17 14 14 13 16 13 15 14 13 13 13 13 11 11 10 10 9 7 7 7 6
8 2 3 5 5 11 7 10 7 9 4 5 5 9 10 7 14 15 17 21 20 18 18 18 17 15 16 14 13 12 10 10 12 15 14 12 11 11 9 8 8 8 7 6
4 3 4 5 6 2 3 11 8 10 7 8 5 8 12 9 14 12 16 18 18 16 16 16 15 13 12 12 12 14 14 13 14 13 13 11 11 11 10 7 7 7 6 6
6 4 2 4 5 2 6 5 5 7 9 14 14 15 13 14 11 12 9 15 18 16 13 13 11 13 14 12 13 14 13 14 14 11 11 10 10 9 8 8 7 6 4 3
12 5 0 2 3 6 4 8 3 8 1 7 16 20 19 20 16 13 8 12 14 16 11 9 11 15 15 15 13 14 14 13 15 11 10 9 10 8 6 7 5 2 2 3
9 3 5 3 3 2 5 3 6 8 6 7 12 16 22 12 8 6 8 15 11 13 9 12 14 14 17 13 14 16 13 14 13 10 10 9 8 7 7 5 5 3 3 5
3 3 3 2 1 7 7 7 3 5 10 18 21 16 12 5 4 20 12 14 10 10 11 12 14 15 13 13 13 14 13 13 9 8 9 8 7 7 6 6 6 6 6 6
4 5 0 3 2 8 7 1 6 6 12 21 10 9 7 18 21 19 16 14 12 13 13 15 15 13 11 12 13 12 12 8 7 9 8 8 6 6 6 7 6 6 6 6
3 3 2 5 7 7 4 6 1 3 11 12 14 16 19 19 18 18 17 12 11 12 12 12 14 14 11 11 11 11 5 8 9 8 6 6 6 6 5 6 5 5 6 5
4 3 2 5 3 12 6 9 6 8 9 12 18 20 21 21 18 18 15 13 11 13 12 12 14 12 11 10 10 8 9 7 8 6 6 5 6 6 6 4 4 4 4 4
6 3 1 6 6 7 4 17 6 6 19 17 16 16 20 21 19 17 16 15 13 13 12 12 13 11 11 10 10 8 7 7 6 6 5 5 4 5 5 6 4 4 4 4
1 3 2 1 4 2 3 14 6 14 19 18 21 17 15 17 18 18 14 14 15 14 13 13 13 12 10 10 9 7 5 5 5 5 4 4 4 4 4 4 4 10 8 8
Wind_Direction
192 207 199 208 210 275 311 255 209 219 252 182 249 265 244 271 247 152 163 156 142 82 350 127 130 160 288 37 72 17 285 173 170 150 105 122 147 114 82 92 107 97 92 88
313 231 222 185 217 231 250 273 288 287 246 165 259 269 200 258 251 168 151 145 160 146 154 138 148 167 175 120 138 54 309 246 149 121 120 145 117 88 114 101 78 105 102 100
286 283 227 243 209 209 233 233 237 215 344 240 265 276 200 200 83 82 105 143 148 158 156 165 175 172 166 147 143 134 330 349 284 171 126 73 92 101 88 88 113 91 100 99
281 257 251 238 233 215 228 207 243 269 26 231 165 266 231 171 98 103 133 148 155 159 153 188 190 195 188 192 149 153 152 346 281 148 125 141 163 156 95 133 101 83 93 103
237 242 238 258 238 238 273 188 224 245 216 326 289 104 251 123 125 173 172 170 168 178 172 171 194 198 221 183 186 144 156 110 205 255 167 146 141 151 135 100 101 124 109 99
269 290 273 235 260 243 164 9 56 67 131 215 235 147 265 177 181 168 181 183 179 190 169 168 182 130 178 169 157 152 130 82 284 232 177 157 147 142 118 120 149 144 111 92
298 258 234 255 13 9 94 82 15 68 99 216 157 118 238 257 165 174 188 189 185 188 184 172 165 174 157 169 182 150 113 159 244 269 162 140 149 138 141 147 164 125 99 98
235 299 188 186 175 163 164 156 156 168 179 249 135 210 248 219 101 171 187 181 176 186 195 180 174 195 171 182 177 186 136 162 188 182 161 143 145 139 121 162 132 107 122 98
272 245 152 179 168 141 140 141 172 100 264 63 221 266 317 246 243 130 166 157 183 184 195 177 185 192 175 178 193 177 172 166 147 134 128 102 106 112 133 113 100 104 91 108
293 324 188 197 161 211 155 163 65 22 117 243 263 246 239 224 231 163 180 194 197 205 178 180 169 185 190 162 170 140 120 114 123 116 119 122 116 111 104 100 96 94 89 77
163 187 297 105 181 154 111 76 41 99 133 257 322 262 217 219 226 166 195 193 171 184 196 189 185 181 183 132 124 124 115 109 96 105 103 104 109 103 94 91 90 79 70 59
201 175 212 190 206 148 145 150 160 131 203 208 177 274 323 279 216 168 182 182 178 176 194 153 144 115 118 111 117 118 120 112 109 107 109 104 100 95 90 91 84 77 73 59
191 194 57 111 354 46 146 172 135 125 78 207 146 276 6 12 62 91 191 168 141 152 171 111 103 110 114 119 120 118 117 113 110 107 101 97 92 90 88 87 81 70 75 69
99 159 150 192 205 167 163 156 156 128 120 206 236 314 356 13 62 74 76 95 79 76 85 86 95 107 113 116 113 108 109 112 112 107 103 100 94 88 81 74 70 69 64 56
58 72 344 273 206 179 201 233 164 158 168 147 264 6 354 81 68 80 93 92 82 74 84 87 87 98 105 112 118 113 117 123 122 115 105 104 99 89 85 81 72 64 47 36
328 281 25 327 273 194 208 231 204 153 176 127 102 74 64 92 97 91 87 91 89 90 90 92 95 98 92 97 110 107 105 94 96 97 98 91 82 85 80 75 75 68 56 39
300 33 39 288 345 300 309 241 195 179 187 145 110 129 97 59 69 71 89 87 85 84 91 96 91 89 87 92 99 95 91 85 77 77 82 89 89 85 80 76 64 55 42 36
288 48 270 253 4 126 233 352 205 143 135 123 120 115 125 119 94 65 30 100 89 72 61 74 80 78 76 76 79 87 83 95 88 76 78 73 86 86 85 73 62 46 33 31
207 148 78 101 127 288 11 14 336 143 48 119 134 138 138 120 98 61 75 89 88 101 83 68 79 75 68 62 66 73 68 74 79 76 73 79 86 81 77 71 59 41 35 1
119 174 121 29 48 211 241 267 16 65 151 128 138 162 164 165 118 164 164 106 91 76 91 90 80 77 70 63 66 68 63 66 70 70 71 70 72 68 57 47 34 13 11 22
72 349 109 111 36 280 247 260 145 145 210 168 165 191 211 146 143 140 127 94 89 100 93 84 76 79 80 73 67 68 70 67 71 73 65 57 44 54 41 39 37 48 44 38
162 135 253 92 233 271 197 176 175 215 143 158 163 169 117 116 117 122 117 119 120 105 93 87 88 80 76 78 81 70 66 67 70 73 66 65 52 56 63 78 52 47 52 47
48 56 289 191 232 4 269 192 310 143 153 156 136 124 122 121 123 124 127 133 122 107 97 94 92 84 71 73 77 81 78 75 64 64 58 60 51 46 52 72 63 48 49 51
351 42 264 320 10 333 351 22 18 89 82 113 130 132 134 133 134 133 128 131 120 113 107 100 93 89 85 77 77 69 58 67 68 67 59 49 48 36 36 56 72 66 52 49
218 330 14 293 325 342 4 358 332 119 109 111 117 133 134 133 136 137 134 130 119 113 108 104 101 96 86 82 78 74 67 69 69 65 51 43 35 36 44 54 45 71 62 70
309 17 30 216 281 237 302 349 283 126 129 128 126 128 128 131 135 131 125 118 118 117 113 102 99 99 99 95 88 86 77 69 81 77 59 52 48 49 52 51 26 35 95 65